Tracking 29892 objects as of 21-Nov-2024
HD Live streaming from Space Station
objects crossing your sky now

FENGYUN 1C DEB

Track FENGYUN 1C DEB now!
10-day predictions


NORAD ID: 30263
Int'l Code: 1999-025XY
Perigee: 794.0 km
Apogee: 1,015.5 km
Inclination: 98.9 °
Period: 102.9 minutes
Semi major axis: 7275 km
RCS: 0.023 m2 (small)
Launch date: May 10, 1999
Source: People's Republic of China (PRC)
Launch site: Taiyaun Space Center, China (TSC)

Note: This is SATELLITE DEBRIS
Your satellite tracking list
Your tracking list is empty




NASA's NSSDC Master Catalog

Two Line Element Set (TLE):
1 30263U 99025XY  24326.05335076  .00002798  00000-0  17828-2 0  9999
2 30263  98.8891  85.0540 0152210 353.7808  61.7652 13.98910779906226
Source of the keplerian elements: AFSPC